{"data":{"norad_id":63164,"epoch":"2026-05-25T03:29:33.811008Z","epoch_age_seconds":62373,"freshness":"FRESH","line1":"1 63164U 25046F   26145.14553022  .00000042  00000+0  46054-4 0  9995","line2":"2 63164  88.9691 303.0502 0015447  25.1484 335.0416 13.51007836 69495","mean_motion":13.51007836,"eccentricity":0.0015447,"inclination_deg":88.9691,"raan_deg":303.0502,"arg_perigee_deg":25.1484,"mean_anomaly_deg":335.0416,"bstar":4.6054e-5,"rev_number":6949,"period_min":106.5870945844,"perigee_km":1057.0498889512,"apogee_km":1080.0556923905,"semimajor_km":7446.6897906709,"source":"CELESTRAK","updated_at":"2026-05-25T13:38:03.539030Z"}}